Weather History for Albert Lea, MN

Change the Weather History Date:

Wednesday, February 5, 2014

  Actual Average Record
Temperature  
Mean Temperature -1 °F -  
Max Temperature 3 °F 25 °F 51 °F (2005)
Min Temperature -5 °F 10 °F -16 °F (2007)
Degree Days  
Heating Degree Days 66    
Moisture  
Dew Point -7 °F    
Average Humidity 72    
Maximum Humidity 85    
Minimum Humidity 66    
Precipitation  
Precipitation 0.00 in - - ()
Sea Level Pressure  
Sea Level Pressure 30.43 in    
Wind  
Wind Speed 12 mph (NW)    
Max Wind Speed 17 mph    
Max Gust Speed 25 mph    
Visibility 8 miles    
Events Snow    
Averages and records for this station are not official NWS values.
T = Trace of Precipitation, MM = Missing Value Source: NWS Daily Summary

Daily Weather History Graph

Daily Weather History Graph

Search for Another Location

Airport:

Trip Planner

Search our weather history database for the weather conditions in past years. The results will help you decide how hot, cold, wet, or windy it might be!

Date:

Astronomy

Feb. 05, 2014 Rise Set
Actual Time 7:25 AM CST 5:30 PM CST
Civil Twilight 6:55 AM CST 6:00 PM CST
Nautical Twilight 6:21 AM CST 6:34 PM CST
Astronomical Twilight 5:47 AM CST 7:07 PM CST
Moon 10:27 AM CST (2/5) No Moon Set
Length of Visible Light 11h 05m
Length of Day
10h 04m
Waxing Crescent, 39% of the Moon is Illuminated
Feb 5
Waxing Crescent
Feb 6
First Quarter
Feb 14
Full
Feb 22
Last Quarter
Mar 1
New

Hourly Weather History & Observations

Time (CST) Temp. Windchill Dew Point Humidity Pressure Visibility Wind Dir Wind Speed Gust Speed Precip Events Conditions
12:13 AM 3.2 °F -15.3 °F -4.0 °F 72% 30.35 in 10.0 mi NNW 15.0 mph - N/A   Overcast
12:34 AM 3.2 °F -12.2 °F -4.0 °F 72% 30.36 in 10.0 mi NNW 10.4 mph 21.9 mph N/A   Overcast
12:53 AM 3.2 °F -15.3 °F -5.8 °F 66% 30.36 in 10.0 mi NNW 15.0 mph 21.9 mph N/A   Overcast
1:13 AM 3.2 °F -13.9 °F -5.8 °F 66% 30.37 in 10.0 mi NNW 12.7 mph 20.7 mph N/A   Overcast
1:34 AM 1.4 °F -15.3 °F -5.8 °F 72% 30.37 in 10.0 mi NNW 11.5 mph 19.6 mph N/A   Overcast
1:53 AM 1.4 °F -18.2 °F -5.8 °F 72% 30.37 in 3.0 mi North 16.1 mph 20.7 mph N/A Snow Light Snow
2:13 AM 1.4 °F -17.6 °F -4.0 °F 78% 30.37 in 2.5 mi North 15.0 mph 20.7 mph N/A Snow Light Snow
2:34 AM 1.4 °F -17.6 °F -5.8 °F 72% 30.37 in 4.0 mi NNW 15.0 mph 21.9 mph N/A Snow Light Snow
2:53 AM 1.4 °F -18.2 °F -5.8 °F 72% 30.37 in 4.0 mi NNW 16.1 mph 23.0 mph N/A Snow Light Snow
3:13 AM 1.4 °F -17.6 °F -5.8 °F 72% 30.37 in 5.0 mi NNW 15.0 mph 21.9 mph N/A Snow Light Snow
3:34 AM -0.4 °F -18.4 °F -5.8 °F 78% 30.37 in 7.0 mi NNW 12.7 mph 21.9 mph N/A   Overcast
3:53 AM -0.4 °F -20.5 °F -5.8 °F 78% 30.37 in 5.0 mi North 16.1 mph 19.6 mph N/A Snow Light Snow
4:13 AM -0.4 °F -18.4 °F -5.8 °F 78% 30.38 in 5.0 mi NNW 12.7 mph 23.0 mph N/A Snow Light Snow
4:34 AM -0.4 °F -17.6 °F -5.8 °F 78% 30.38 in 7.0 mi NNW 11.5 mph 18.4 mph N/A   Overcast
4:53 AM -0.4 °F -19.9 °F -7.6 °F 72% 30.39 in 7.0 mi NNW 15.0 mph 23.0 mph N/A   Overcast
5:13 AM -0.4 °F -19.9 °F -7.6 °F 72% 30.39 in 5.0 mi NNW 15.0 mph 21.9 mph N/A   Haze
5:33 AM -0.4 °F -19.2 °F -7.6 °F 72% 30.39 in 7.0 mi NNW 13.8 mph 23.0 mph N/A   Overcast
5:53 AM -0.4 °F -20.5 °F -7.6 °F 72% 30.39 in 7.0 mi NNW 16.1 mph 25.3 mph N/A   Mostly Cloudy
6:13 AM -0.4 °F -21.2 °F -9.4 °F 66% 30.39 in 10.0 mi NNW 17.3 mph 23.0 mph N/A   Mostly Cloudy
6:33 AM -0.4 °F -21.2 °F -9.4 °F 66% 30.40 in 10.0 mi NNW 17.3 mph 23.0 mph N/A   Scattered Clouds
6:53 AM -0.4 °F -18.4 °F -9.4 °F 66% 30.40 in 10.0 mi NNW 12.7 mph 20.7 mph N/A   Mostly Cloudy
7:13 AM -0.4 °F -19.9 °F -9.4 °F 66% 30.41 in 10.0 mi NNW 15.0 mph 20.7 mph N/A   Mostly Cloudy
7:33 AM -0.4 °F -19.9 °F -9.4 °F 66% 30.41 in 10.0 mi NNW 15.0 mph 19.6 mph N/A   Scattered Clouds
7:53 AM -0.4 °F -19.2 °F -9.4 °F 66% 30.42 in 10.0 mi NNW 13.8 mph 23.0 mph N/A   Clear
8:13 AM -0.4 °F -19.9 °F -9.4 °F 66% 30.42 in 10.0 mi NNW 15.0 mph 20.7 mph N/A   Clear
8:33 AM -0.4 °F -18.4 °F -9.4 °F 66% 30.43 in 10.0 mi NNW 12.7 mph 18.4 mph N/A   Clear
8:53 AM -0.4 °F -18.4 °F -9.4 °F 66% 30.44 in 10.0 mi NNW 12.7 mph 20.7 mph N/A   Clear
9:14 AM -0.4 °F -20.5 °F -9.4 °F 66% 30.44 in 10.0 mi NNW 16.1 mph 21.9 mph N/A   Clear
9:33 AM -0.4 °F -17.6 °F -7.6 °F 72% 30.45 in 10.0 mi NNW 11.5 mph 20.7 mph N/A   Clear
9:53 AM -0.4 °F -19.9 °F -9.4 °F 66% 30.45 in 10.0 mi NNW 15.0 mph 20.7 mph N/A   Clear
10:14 AM -0.4 °F -15.7 °F -7.6 °F 72% 30.46 in 10.0 mi NW 9.2 mph 19.6 mph N/A   Clear
10:33 AM 1.4 °F -16.1 °F -7.6 °F 66% 30.46 in 10.0 mi NNW 12.7 mph 19.6 mph N/A   Clear
10:53 AM 1.4 °F -12.5 °F -7.6 °F 66% 30.47 in 10.0 mi NW 8.1 mph - N/A   Clear
11:13 AM 1.4 °F -15.3 °F -7.6 °F 66% 30.47 in 10.0 mi NNW 11.5 mph 17.3 mph N/A   Clear
11:33 AM 1.4 °F -15.3 °F -7.6 °F 66% 30.47 in 10.0 mi NW 11.5 mph 17.3 mph N/A   Clear
11:53 AM 1.4 °F -13.5 °F -7.6 °F 66% 30.46 in 10.0 mi NW 9.2 mph 16.1 mph N/A   Clear
12:14 PM 1.4 °F -14.5 °F -7.6 °F 66% 30.45 in 10.0 mi NNW 10.4 mph - N/A   Clear
12:33 PM 1.4 °F -14.5 °F -7.6 °F 66% 30.45 in 10.0 mi NW 10.4 mph 18.4 mph N/A   Clear
12:53 PM 1.4 °F -15.3 °F -5.8 °F 72% 30.45 in 10.0 mi NW 11.5 mph 18.4 mph N/A   Clear
1:13 PM 1.4 °F -13.5 °F -5.8 °F 72% 30.45 in 10.0 mi NW 9.2 mph 20.7 mph N/A   Scattered Clouds
1:33 PM 3.2 °F -15.3 °F -5.8 °F 66% 30.45 in 10.0 mi NW 15.0 mph 18.4 mph N/A   Scattered Clouds
1:53 PM 3.2 °F -14.6 °F -5.8 °F 66% 30.44 in 10.0 mi NW 13.8 mph 18.4 mph N/A   Mostly Cloudy
2:13 PM 3.2 °F -12.2 °F -5.8 °F 66% 30.45 in 5.0 mi NW 10.4 mph 20.7 mph N/A   Haze
2:33 PM 3.2 °F -13.9 °F -5.8 °F 66% 30.45 in 10.0 mi NW 12.7 mph 19.6 mph N/A   Scattered Clouds
2:53 PM 3.2 °F -13.9 °F -4.0 °F 72% 30.45 in 5.0 mi NW 12.7 mph 19.6 mph N/A   Haze
3:13 PM 3.2 °F -13.1 °F -4.0 °F 72% 30.45 in 3.0 mi NW 11.5 mph 16.1 mph N/A   Haze
3:33 PM 3.2 °F -11.3 °F -5.8 °F 66% 30.45 in 7.0 mi NW 9.2 mph 19.6 mph N/A   Mostly Cloudy
3:53 PM 3.2 °F -12.2 °F -4.0 °F 72% 30.46 in 5.0 mi NW 10.4 mph 17.3 mph N/A   Haze
4:12 PM 1.4 °F -12.5 °F -4.0 °F 78% 30.46 in 5.0 mi NW 8.1 mph - N/A   Haze
4:33 PM 3.2 °F -9.1 °F -4.0 °F 72% 30.47 in 7.0 mi NW 6.9 mph - N/A   Overcast
4:53 PM 1.4 °F -11.3 °F -5.8 °F 72% 30.47 in 5.0 mi NW 6.9 mph - N/A   Haze
5:13 PM 1.4 °F -12.5 °F -5.8 °F 72% 30.47 in 10.0 mi WNW 8.1 mph - N/A   Clear
5:33 PM 1.4 °F -11.3 °F -5.8 °F 72% 30.47 in 5.0 mi WNW 6.9 mph - N/A   Haze
5:53 PM -0.4 °F -13.4 °F -5.8 °F 78% 30.48 in 10.0 mi WNW 6.9 mph - N/A   Scattered Clouds
6:13 PM -0.4 °F -12.0 °F -5.8 °F 78% 30.48 in 10.0 mi WNW 5.8 mph - N/A   Scattered Clouds
6:33 PM -0.4 °F -13.4 °F -5.8 °F 78% 30.48 in 10.0 mi WNW 6.9 mph - N/A   Scattered Clouds
6:53 PM -2.2 °F -15.6 °F -7.6 °F 78% 30.48 in 10.0 mi WNW 6.9 mph - N/A   Scattered Clouds
7:13 PM -2.2 °F -16.8 °F -7.6 °F 78% 30.49 in 10.0 mi WNW 8.1 mph - N/A   Clear
7:33 PM -2.2 °F -15.6 °F -7.6 °F 78% 30.48 in 10.0 mi WNW 6.9 mph - N/A   Clear
7:53 PM -2.2 °F -15.6 °F -7.6 °F 78% 30.48 in 10.0 mi WNW 6.9 mph - N/A   Scattered Clouds
8:13 PM -2.2 °F -14.2 °F -7.6 °F 78% 30.48 in 10.0 mi WNW 5.8 mph - N/A   Scattered Clouds
8:33 PM -2.2 °F -12.5 °F -7.6 °F 78% 30.48 in 10.0 mi WNW 4.6 mph - N/A   Scattered Clouds
8:53 PM -4.0 °F -17.8 °F -7.6 °F 85% 30.47 in 10.0 mi WNW 6.9 mph - N/A   Scattered Clouds
9:14 PM -2.2 °F -15.6 °F -7.6 °F 78% 30.47 in 10.0 mi WNW 6.9 mph - N/A   Scattered Clouds
9:33 PM -4.0 °F -17.8 °F -9.4 °F 78% 30.47 in 7.0 mi WNW 6.9 mph - N/A   Mostly Cloudy
9:53 PM -5.8 °F -18.4 °F -9.4 °F 84% 30.47 in 10.0 mi WNW 5.8 mph - N/A   Scattered Clouds
10:14 PM -5.8 °F -21.2 °F -9.4 °F 84% 30.47 in 10.0 mi WNW 8.1 mph - N/A   Scattered Clouds
10:33 PM -5.8 °F -19.9 °F -9.4 °F 84% 30.46 in 10.0 mi NW 6.9 mph - N/A   Mostly Cloudy
10:53 PM -5.8 °F -19.9 °F -9.4 °F 84% 30.46 in 10.0 mi WNW 6.9 mph - N/A   Overcast
11:14 PM -5.8 °F -19.9 °F -11.2 °F 77% 30.46 in 10.0 mi WNW 6.9 mph - N/A   Mostly Cloudy
11:33 PM -5.8 °F -18.4 °F -11.2 °F 77% 30.45 in 10.0 mi WNW 5.8 mph - N/A   Scattered Clouds
11:53 PM -5.8 °F -18.4 °F -11.2 °F 77% 30.46 in 10.0 mi WNW 5.8 mph - N/A   Clear